North Platte, NE

2:58 AM CDT on September 26, 2017 (GMT -0500)
North Platte Regional-Bird

Weather History for KLBF - May, 2014

Change the Weather History Date:

Monday, May 12, 2014

  Actual Average Record
Temperature  
Mean Temperature 41 °F 57 °F  
Max Temperature 48 °F 71 °F 93 °F (1962)
Min Temperature 34 °F 43 °F 26 °F (1953)
Degree Days  
Heating Degree Days 24 9  
Month to date heating degree days 163 126  
Since 1 July heating degree days 6730 6516  
Cooling Degree Days 0 1  
Month to date cooling degree days 0 2  
Year to date cooling degree days 2 5  
Moisture  
Dew Point 33 °F    
Average Humidity 67    
Maximum Humidity 92    
Minimum Humidity 42    
Precipitation  
Precipitation 0.33 in 0.10 in 1.28 in (2011)
Month to date precipitation 0.85 1.12  
Year to date precipitation 3.33 5.28  
Snow  
Snow T in 0.00 in 0.20 in (1966)
Month to date snowfall T 0.0  
Since 1 July snowfall 29.8 28.5  
Snow Depth 0.00 in    
Sea Level Pressure  
Sea Level Pressure 30.09 in    
Wind  
Wind Speed 18 mph (NNW)    
Max Wind Speed 35 mph    
Max Gust Speed 45 mph    
Visibility 9 miles    
Events Rain , Snow    
T = Trace of Precipitation, MM = Missing Value Source: NWS Daily Summary

Daily Weather History Graph

Daily Weather History Graph

Search for Another Location

Airport or City:

Trip Planner

Search our weather history database for the weather conditions in past years. The results will help you decide how hot, cold, wet, or windy it might be!

Date:

Astronomy

May. 12, 2014 Rise Set
Actual Time 6:27 AM CDT 8:51 PM CDT
Civil Twilight 5:56 AM CDT 9:22 PM CDT
Nautical Twilight 5:18 AM CDT 10:00 PM CDT
Astronomical Twilight 4:35 AM CDT 10:43 PM CDT
Moon 6:50 PM CDT (5/12) 5:09 AM CDT (5/12)
Length of Visible Light 15h 25m
Length of Day
14h 23m
Waxing Gibbous, 95% of the Moon is Illuminated
May 12
Waxing Gibbous
May 14
Full
May 21
Last Quarter
May 28
New
Jun 5
First Quarter

Hourly Weather History & Observations

Time (CDT) Temp. Windchill Dew Point Humidity Pressure Visibility Wind Dir Wind Speed Gust Speed Precip Events Conditions
12:53 AM 41.0 °F 34.3 °F 37.9 °F 89% 29.94 in 10.0 mi North 11.5 mph 18.4 mph 0.04 in Rain Light Rain
1:53 AM 41.0 °F 35.2 °F 37.9 °F 89% 29.97 in 7.0 mi NNW 9.2 mph 23.0 mph 0.02 in Rain Light Rain
2:32 AM 41.0 °F 34.3 °F 37.9 °F 89% 29.93 in 8.0 mi NNW 11.5 mph - 0.08 in Rain Light Rain
2:53 AM 39.9 °F 32.1 °F 37.0 °F 89% 29.95 in 9.0 mi NNW 13.8 mph 24.2 mph 0.12 in Rain Light Rain
3:53 AM 37.9 °F 30.9 °F 36.0 °F 93% 29.96 in 9.0 mi NNW 10.4 mph 20.7 mph 0.02 in Rain Light Rain
4:53 AM 37.9 °F 28.9 °F 35.1 °F 89% 29.97 in 10.0 mi NNW 16.1 mph 21.9 mph 0.04 in Rain Light Rain
5:53 AM 37.9 °F 28.9 °F 35.1 °F 89% 29.96 in 10.0 mi NNW 16.1 mph 24.2 mph 0.01 in Rain Light Rain
6:53 AM 37.9 °F 28.5 °F 34.0 °F 86% 29.99 in 10.0 mi NNW 17.3 mph 24.2 mph 0.00 in   Overcast
7:53 AM 37.9 °F 30.5 °F 34.0 °F 86% 30.03 in 10.0 mi NNW 11.5 mph 24.2 mph 0.00 in Rain Light Rain
8:53 AM 35.6 °F 26.2 °F 33.8 °F 93% 30.02 in 8.0 mi NW 15.0 mph 23.0 mph N/A Rain Light Rain
9:01 AM 35.1 °F 25.9 °F 33.1 °F 92% 30.02 in 6.0 mi NNW 13.8 mph 24.2 mph 0.00 in Snow Light Snow
9:40 AM 35.1 °F 24.8 °F 33.1 °F 92% 30.05 in 5.0 mi NW 17.3 mph 24.2 mph 0.03 in Snow Light Snow
9:53 AM 35.1 °F 24.8 °F 32.0 °F 89% 30.09 in 3.0 mi NNW 17.3 mph 24.2 mph 0.04 in Snow Light Snow
10:00 AM 35.1 °F 24.8 °F 33.1 °F 92% 30.05 in 4.0 mi NNW 17.3 mph 28.8 mph 0.00 in Snow Light Snow
10:10 AM 35.1 °F 24.8 °F 33.1 °F 92% 30.06 in 6.0 mi NNW 17.3 mph 31.1 mph 0.00 in Snow Light Snow
10:53 AM 36.0 °F 23.5 °F 33.1 °F 89% 30.12 in 4.0 mi NNW 27.6 mph 38.0 mph 0.01 in Snow Light Snow
11:23 AM 37.0 °F 23.9 °F 33.1 °F 86% 30.10 in 10.0 mi NNW 33.4 mph 43.7 mph 0.01 in Rain Light Rain
11:53 AM 37.9 °F 25.9 °F 33.1 °F 83% 30.15 in 10.0 mi NNW 28.8 mph 40.3 mph 0.01 in Rain Light Rain
12:53 PM 39.0 °F 27.6 °F 33.1 °F 79% 30.16 in 10.0 mi NNW 27.6 mph 40.3 mph 0.00 in   Overcast
1:53 PM 41.0 °F 30.5 °F 33.1 °F 73% 30.17 in 10.0 mi NNW 26.5 mph 44.9 mph N/A   Overcast
2:53 PM 41.0 °F 30.7 °F 33.1 °F 73% 30.19 in 10.0 mi NNW 25.3 mph 35.7 mph N/A   Overcast
3:53 PM 42.1 °F 32.6 °F 34.0 °F 73% 30.21 in 10.0 mi NNW 23.0 mph 31.1 mph 0.00 in   Overcast
4:18 PM 43.0 °F 33.1 °F 32.0 °F 65% 30.16 in 10.0 mi NNW 26.5 mph 34.5 mph N/A   Overcast
4:53 PM 44.1 °F 35.4 °F 36.0 °F 73% 30.19 in 10.0 mi NNW 21.9 mph 29.9 mph N/A   Overcast
5:53 PM 46.4 °F 37.5 °F 30.2 °F 53% 30.14 in 10.0 mi NNW 27.6 mph 36.8 mph N/A   Overcast
6:53 PM 48.0 °F - 28.0 °F 46% 30.16 in 10.0 mi NNW 23.0 mph 32.2 mph N/A   Overcast
7:53 PM 48.0 °F - 27.0 °F 44% 30.17 in 10.0 mi NNW 25.3 mph 35.7 mph N/A   Overcast
8:53 PM 45.0 °F 37.6 °F 26.1 °F 48% 30.22 in 10.0 mi NNW 17.3 mph 26.5 mph N/A   Clear
9:53 PM 44.6 °F 39.2 °F 26.6 °F 49% 30.22 in 10.0 mi NNW 10.4 mph - N/A   Overcast
10:53 PM 41.0 °F 39.0 °F 30.9 °F 67% 30.29 in 10.0 mi NW 3.5 mph - N/A   Overcast
11:53 PM 39.9 °F 34.5 °F 30.9 °F 70% 30.29 in 10.0 mi WNW 8.1 mph - N/A   Overcast